Location: Dalton
(34.7700°N, 84.9700°W)
Time: 18:50:18
(UTC-05:00)

Vanguard 1 Rocket - All Passes

Search period start: 15 December 2017 00:00
Search period end: 25 December 2017 00:00
Orbit: 656 x 4222 km, 34.3° (Epoch: 13 December)

Date Brightness Start Highest point End Pass type
(mag) Time Alt. Az. Time Alt. Az. Time Alt. Az.
15 Dec - 02:05:48 10° W 02:21:29 21° SW 02:36:58 10° S visible
15 Dec - 15:05:16 10° SSW 15:10:48 28° SE 15:19:41 10° E daylight
15 Dec - 17:27:22 10° WSW 17:35:58 77° SSE 17:53:35 10° E visible
15 Dec - 19:52:12 10° W 20:05:03 87° S 20:29:11 10° ESE visible
15 Dec - 22:18:41 10° WNW 22:36:31 65° SSW 23:02:20 10° SE visible
16 Dec - 00:48:57 10° W 01:07:46 33° SW 01:28:17 10° S visible
16 Dec - 13:58:41 10° SE 14:00:42 11° SE 14:03:00 10° ESE daylight
16 Dec - 16:17:19 10° SW 16:24:20 58° SSE 16:38:01 10° ENE daylight
16 Dec - 18:41:17 10° W 18:51:42 88° S 19:12:44 10° E visible
16 Dec - 21:06:52 10° W 21:22:06 75° SSW 21:47:42 10° ESE visible
16 Dec - 23:34:47 10° W 23:53:36 45° SW 00:17:09 10° SSE visible
17 Dec - 02:12:34 10° WSW 02:23:49 15° SW 02:35:09 10° SSW visible
17 Dec - 15:07:55 10° SSW 15:13:32 35° SE 15:23:05 10° E daylight
17 Dec - 17:30:43 10° WSW 17:39:08 83° S 17:56:30 10° E visible
17 Dec - 19:55:35 10° W 20:08:11 84° S 20:31:57 10° ESE visible
17 Dec - 22:22:04 10° WNW 22:39:13 57° SSW 23:04:19 10° SE visible
18 Dec - 00:53:24 10° W 01:10:08 26° SW 01:28:37 10° S visible
18 Dec - 13:59:42 10° S 14:03:19 17° SE 14:08:06 10° E daylight
18 Dec - 16:20:32 10° WSW 16:27:25 68° SSE 16:41:01 10° E daylight
18 Dec - 18:44:42 10° W 18:54:56 88° S 19:15:39 10° E visible
18 Dec - 21:10:13 10° W 21:25:01 68° SSW 21:50:02 10° SE visible
18 Dec - 23:38:32 10° W 23:56:06 37° SW 00:18:17 10° SSE visible
19 Dec - 15:10:49 10° SW 15:16:25 45° SSE 15:26:20 10° E daylight
19 Dec - 17:34:08 10° W 17:42:24 87° S 17:59:28 10° E visible
19 Dec - 19:58:58 10° W 20:11:16 78° SSW 20:34:36 10° ESE visible
19 Dec - 22:25:32 10° W 22:41:56 49° SSW 23:05:57 10° SE visible
20 Dec - 00:58:48 10° W 01:12:38 19° SW 01:27:55 10° S visible
20 Dec - 14:01:51 10° S 14:06:03 23° SE 14:12:05 10° E daylight
20 Dec - 16:23:51 10° WSW 16:30:36 77° SSE 16:44:01 10° E daylight
20 Dec - 18:48:08 10° W 18:58:10 86° S 19:18:30 10° ESE visible
20 Dec - 21:13:37 10° W 21:27:55 61° SSW 21:52:07 10° SE visible
20 Dec - 23:42:41 10° W 23:58:42 30° SW 00:18:52 10° S visible
21 Dec - 15:13:55 10° SW 15:19:28 55° SSE 15:29:29 10° E daylight
21 Dec - 17:37:35 10° W 17:45:42 88° S 18:02:26 10° E visible
21 Dec - 20:02:23 10° W 20:14:21 72° SSW 20:37:04 10° ESE visible
21 Dec - 22:29:13 10° W 22:44:41 41° SW 23:07:13 10° SSE visible
22 Dec - 01:06:25 10° WSW 01:15:21 13° SW 01:24:56 10° SSW visible
22 Dec - 14:04:28 10° SSW 14:08:57 31° SE 14:15:41 10° E daylight
22 Dec - 16:27:15 10° WSW 16:33:52 83° S 16:47:02 10° E daylight
22 Dec - 18:51:33 10° W 19:01:22 81° SSW 19:21:16 10° ESE visible
22 Dec - 21:17:06 10° W 21:30:50 52° SSW 21:53:53 10° SE visible
22 Dec - 23:47:28 10° W 00:01:25 23° SW 00:18:40 10° S visible
23 Dec - 12:56:16 10° S 12:58:46 14° SE 13:01:37 10° ESE daylight
23 Dec - 15:17:09 10° WSW 15:22:39 66° SSE 15:32:37 10° E daylight
23 Dec - 17:41:03 10° W 17:49:00 87° S 18:05:24 10° E visible
23 Dec - 20:05:48 10° W 20:17:25 63° SSW 20:39:17 10° SE visible
23 Dec - 22:33:11 10° W 22:47:31 33° SW 23:07:59 10° SSE visible
24 Dec - 14:07:23 10° SW 14:11:59 41° SSE 14:19:04 10° E daylight
24 Dec - 16:30:42 10° W 16:37:13 87° S 16:50:05 10° E daylight
24 Dec - 18:55:00 10° W 19:04:34 74° SSW 19:23:54 10° ESE visible
24 Dec - 21:20:44 10° W 21:33:48 43° SSW 21:55:18 10° SSE visible
